• In India
  • List of Countries
  • For 7 days
  • Water Temperature
  • Satellite Maps
  • Weather Map
  • Weather Widgets
  • user-avatar
    Login

    Hourly Weather Contadero

    Today, 24 February, Saturday

    Time Temperature Precipitation Wind Pressure Humidity
    00:00 +10°C° 0.3 mm 1 mps 550 mmHg 92%
    01:00 +10°C° 0.3 mm 1 mps 549 mmHg 92%
    02:00 +10°C° 0.3 mm 1 mps 549 mmHg 92%
    03:00 +10°C° 0.3 mm 1 mps 549 mmHg 91%
    04:00 +10°C° 0.3 mm 1 mps 549 mmHg 91%
    05:00 +10°C° 0.1 mm 1 mps 549 mmHg 90%
    06:00 +10°C° 0.1 mm 1 mps 549 mmHg 89%
    07:00 +10°C° 0.1 mm 1 mps 549 mmHg 88%
    08:00 +11°C° 0.1 mm 1 mps 550 mmHg 80%
    09:00 +13°C° 0.1 mm 1 mps 552 mmHg 72%
    10:00 +15°C° 0.1 mm 1 mps 553 mmHg 65%
    11:00 +15°C° 0.3 mm 2 mps 552 mmHg 65%
    12:00 +16°C° 0.3 mm 2 mps 552 mmHg 66%
    13:00 +16°C° 0.3 mm 2 mps 552 mmHg 67%
    14:00 +16°C° 0.8 mm 2 mps 551 mmHg 70%
    15:00 +15°C° 0.8 mm 2 mps 551 mmHg 72%
    16:00 +15°C° 0.8 mm 2 mps 550 mmHg 75%
    17:00 +14°C° 0.7 mm 2 mps 550 mmHg 80%
    18:00 +12°C° 0.7 mm 2 mps 549 mmHg 85%
    19:00 +11°C° 0.7 mm 1 mps 549 mmHg 90%
    20:00 +11°C° 0.2 mm 1 mps 549 mmHg 91%
    21:00 +11°C° 0.2 mm 1 mps 550 mmHg 91%
    22:00 +10°C° 0.2 mm 1 mps 550 mmHg 91%
    23:00 +10°C° 0 mm 1 mps 550 mmHg 91%

    Tomorrow, 25 February, Sunday

    Time Temperature Precipitation Wind Pressure Humidity
    00:00 +10°C° 0 mm 1 mps 550 mmHg 91%
    01:00 +10°C° 0 mm 1 mps 549 mmHg 90%
    02:00 +10°C° 0 mm 1 mps 549 mmHg 90%
    03:00 +9°C° 0 mm 1 mps 549 mmHg 89%
    04:00 +9°C° 0 mm 1 mps 548 mmHg 88%
    05:00 +9°C° 0 mm 1 mps 549 mmHg 87%
    06:00 +9°C° 0 mm 1 mps 549 mmHg 85%
    07:00 +9°C° 0 mm 1 mps 549 mmHg 84%
    08:00 +12°C° 0 mm 1 mps 551 mmHg 74%
    09:00 +14°C° 0 mm 1 mps 552 mmHg 64%
    10:00 +16°C° 0 mm 1 mps 554 mmHg 54%
    11:00 +16°C° 0.3 mm 2 mps 553 mmHg 58%
    12:00 +16°C° 0.3 mm 2 mps 552 mmHg 63%
    13:00 +16°C° 0.3 mm 2 mps 552 mmHg 67%
    14:00 +15°C° 0.6 mm 2 mps 551 mmHg 70%
    15:00 +15°C° 0.6 mm 2 mps 550 mmHg 73%
    16:00 +14°C° 0.6 mm 2 mps 550 mmHg 77%
    17:00 +13°C° 0.7 mm 2 mps 550 mmHg 81%
    18:00 +12°C° 0.7 mm 2 mps 549 mmHg 85%
    19:00 +11°C° 0.7 mm 1 mps 549 mmHg 89%
    20:00 +11°C° 0.3 mm 1 mps 550 mmHg 90%
    21:00 +10°C° 0.3 mm 1 mps 550 mmHg 91%
    22:00 +10°C° 0.3 mm 1 mps 550 mmHg 92%
    23:00 +10°C° 0.2 mm 1 mps 550 mmHg 92%

    Day after tomorrow, 26 February, Monday

    Time Temperature Precipitation Wind Pressure Humidity
    00:00 +9°C° 0.2 mm 1 mps 550 mmHg 91%
    01:00 +9°C° 0.2 mm 1 mps 550 mmHg 90%
    02:00 +9°C° 0 mm 1 mps 549 mmHg 89%
    03:00 +9°C° 0 mm 1 mps 549 mmHg 88%
    04:00 +9°C° 0 mm 1 mps 549 mmHg 87%
    05:00 +9°C° 0 mm 1 mps 549 mmHg 86%
    06:00 +9°C° 0 mm 1 mps 549 mmHg 84%
    07:00 +9°C° 0 mm 1 mps 550 mmHg 83%
    08:00 +11°C° 0 mm 1 mps 551 mmHg 73%
    09:00 +14°C° 0 mm 1 mps 553 mmHg 63%
    10:00 +16°C° 0 mm 1 mps 554 mmHg 53%
    11:00 +16°C° 0.3 mm 2 mps 553 mmHg 57%
    12:00 +16°C° 0.3 mm 2 mps 553 mmHg 60%
    13:00 +16°C° 0.3 mm 3 mps 552 mmHg 64%
    14:00 +15°C° 0.8 mm 2 mps 551 mmHg 69%
    15:00 +14°C° 0.8 mm 2 mps 550 mmHg 73%
    16:00 +14°C° 0.8 mm 2 mps 549 mmHg 78%
    17:00 +13°C° 0.4 mm 2 mps 549 mmHg 82%
    18:00 +12°C° 0.4 mm 1 mps 549 mmHg 86%
    19:00 +11°C° 0.4 mm 1 mps 549 mmHg 90%
    20:00 +11°C° 0.1 mm 1 mps 550 mmHg 90%
    21:00 +10°C° 0.1 mm 1 mps 550 mmHg 90%
    22:00 +10°C° 0.1 mm 1 mps 550 mmHg 91%
    23:00 +10°C° 0 mm 1 mps 550 mmHg 90%

    27 February, Tuesday

    Time Temperature Precipitation Wind Pressure Humidity
    00:00 +10°C° 0 mm 1 mps 549 mmHg 90%
    01:00 +9°C° 0 mm 1 mps 549 mmHg 90%
    02:00 +9°C° 0.1 mm 1 mps 549 mmHg 89%
    03:00 +9°C° 0.1 mm 1 mps 549 mmHg 87%
    04:00 +9°C° 0.1 mm 1 mps 548 mmHg 86%
    05:00 +9°C° 0 mm 1 mps 549 mmHg 85%
    06:00 +9°C° 0 mm 1 mps 549 mmHg 83%
    07:00 +9°C° 0 mm 1 mps 549 mmHg 82%
    08:00 +12°C° 0 mm 1 mps 551 mmHg 72%
    09:00 +14°C° 0 mm 1 mps 552 mmHg 62%
    10:00 +16°C° 0 mm 2 mps 553 mmHg 53%
    11:00 +16°C° 0.1 mm 2 mps 553 mmHg 53%
    12:00 +17°C° 0.1 mm 2 mps 552 mmHg 54%
    13:00 +17°C° 0.1 mm 3 mps 552 mmHg 54%
    14:00 +16°C° 0.4 mm 2 mps 551 mmHg 59%
    15:00 +16°C° 0.4 mm 2 mps 550 mmHg 65%
    16:00 +15°C° 0.4 mm 2 mps 549 mmHg 70%
    17:00 +14°C° 0.5 mm 2 mps 549 mmHg 76%
    18:00 +13°C° 0.5 mm 2 mps 549 mmHg 82%
    19:00 +11°C° 0.5 mm 1 mps 549 mmHg 89%
    20:00 +11°C° 0.2 mm 1 mps 549 mmHg 89%
    21:00 +11°C° 0.2 mm 1 mps 549 mmHg 89%
    22:00 +11°C° 0.2 mm 1 mps 550 mmHg 89%
    23:00 +10°C° 0.1 mm 1 mps 550 mmHg 89%

    28 February, Wednesday

    Time Temperature Precipitation Wind Pressure Humidity
    00:00 +10°C° 0.1 mm 1 mps 549 mmHg 88%
    01:00 +10°C° 0.1 mm 1 mps 549 mmHg 88%
    02:00 +10°C° 0.1 mm 1 mps 549 mmHg 88%
    03:00 +10°C° 0.1 mm 1 mps 548 mmHg 87%
    04:00 +10°C° 0.1 mm 1 mps 548 mmHg 87%
    05:00 +10°C° 0 mm 1 mps 548 mmHg 86%
    06:00 +10°C° 0 mm 1 mps 549 mmHg 85%
    07:00 +10°C° 0 mm 1 mps 549 mmHg 83%
    08:00 +12°C° 0 mm 1 mps 550 mmHg 74%
    09:00 +14°C° 0 mm 1 mps 551 mmHg 65%
    10:00 +16°C° 0 mm 1 mps 553 mmHg 56%
    11:00 +16°C° 0.3 mm 2 mps 552 mmHg 56%
    12:00 +17°C° 0.3 mm 2 mps 552 mmHg 57%
    13:00 +17°C° 0.3 mm 2 mps 551 mmHg 58%
    14:00 +16°C° 0.7 mm 2 mps 551 mmHg 63%
    15:00 +16°C° 0.7 mm 2 mps 550 mmHg 68%
    16:00 +15°C° 0.7 mm 2 mps 549 mmHg 73%
    17:00 +14°C° 0.5 mm 2 mps 549 mmHg 78%
    18:00 +13°C° 0.5 mm 1 mps 549 mmHg 84%
    19:00 +11°C° 0.5 mm 1 mps 549 mmHg 89%
    20:00 +11°C° 0.6 mm 1 mps 549 mmHg 89%
    21:00 +11°C° 0.6 mm 1 mps 549 mmHg 90%
    22:00 +11°C° 0.6 mm 1 mps 550 mmHg 90%
    23:00 +11°C° 0.3 mm 1 mps 549 mmHg 90%

    1 March, Thursday

    Time Temperature Precipitation Wind Pressure Humidity
    00:00 +11°C° 0.3 mm 1 mps 549 mmHg 91%
    01:00 +11°C° 0.3 mm 1 mps 549 mmHg 91%
    02:00 +10°C° 0.2 mm 1 mps 549 mmHg 91%
    03:00 +10°C° 0.2 mm 1 mps 548 mmHg 90%
    04:00 +10°C° 0.2 mm 1 mps 548 mmHg 90%
    05:00 +10°C° 0.1 mm 1 mps 548 mmHg 89%
    06:00 +10°C° 0.1 mm 1 mps 549 mmHg 87%
    07:00 +9°C° 0.1 mm 0 mps 549 mmHg 86%
    08:00 +12°C° 0.1 mm 1 mps 550 mmHg 78%
    09:00 +14°C° 0.1 mm 1 mps 552 mmHg 69%
    10:00 +16°C° 0.1 mm 1 mps 553 mmHg 61%
    11:00 +16°C° 0.4 mm 2 mps 552 mmHg 63%
    12:00 +16°C° 0.4 mm 2 mps 552 mmHg 64%
    13:00 +17°C° 0.4 mm 2 mps 551 mmHg 66%
    14:00 +16°C° 1.3 mm 2 mps 551 mmHg 71%
    15:00 +15°C° 1.3 mm 2 mps 550 mmHg 76%
    16:00 +14°C° 1.3 mm 2 mps 549 mmHg 81%
    17:00 +13°C° 1.8 mm 1 mps 549 mmHg 84%
    18:00 +12°C° 1.8 mm 1 mps 549 mmHg 87%
    19:00 +11°C° 1.8 mm 0 mps 549 mmHg 90%
    20:00 +12°C° 1.7 mm 1 mps 549 mmHg 90%
    21:00 +11°C° 1.7 mm 1 mps 550 mmHg 89%
    22:00 +11°C° 1.7 mm 1 mps 550 mmHg 89%
    23:00 +11°C° 0.9 mm 1 mps 550 mmHg 88%
    Show more